Theta_e
339 342 343 345 348 349 350 350 350 351 351 352 351 353 352 351 350 350 348 347 348 350 347 349 348 351 344 347 344 342 337 334
333 338 342 343 346 348 349 350 351 351 351 350 349 350 350 349 351 350 347 346 345 347 345 344 344 343 342 339 338 336 334 330
312 326 339 343 344 347 348 350 350 351 349 348 348 349 349 349 350 351 349 346 344 345 345 343 343 341 339 336 334 333 331 329
312 313 329 341 345 346 349 349 350 351 350 349 348 349 350 350 349 349 349 346 344 344 344 343 342 341 339 336 332 331 329 327
318 315 315 336 342 345 346 348 350 349 350 350 349 350 350 350 350 350 350 348 345 344 343 342 342 340 338 335 331 329 326 326
308 309 310 314 339 341 344 347 344 345 349 348 348 346 342 347 349 351 351 350 347 344 342 341 342 339 337 335 332 329 326 325
308 310 317 315 320 334 338 341 339 340 346 342 339 335 334 341 346 349 350 350 349 344 343 343 342 340 337 336 332 331 329 325
307 312 317 313 324 328 331 332 335 340 337 334 336 336 338 339 341 345 348 349 349 346 345 344 342 340 337 335 335 330 331 330
305 307 312 317 325 332 330 330 334 336 333 331 331 333 337 342 343 345 346 349 350 348 346 345 342 339 339 336 335 333 330 329
308 307 309 314 319 329 330 330 330 331 330 330 333 334 336 341 345 344 345 345 346 347 346 344 340 338 338 337 334 333 333 331
307 310 311 314 316 317 319 321 329 333 331 333 336 339 339 338 340 341 343 343 343 344 345 341 338 339 337 338 336 333 331 333
306 307 309 311 313 316 316 317 318 321 327 330 333 334 333 333 333 338 336 341 342 344 343 343 342 338 336 336 339 337 334 331
304 305 306 307 308 308 308 311 312 314 318 319 319 319 321 322 323 323 324 329 339 342 343 343 341 341 339 339 339 339 337 335
300 300 302 301 302 304 304 305 305 307 308 310 310 311 313 314 315 316 318 321 325 330 338 341 341 340 340 340 340 340 338 337
298 298 298 299 299 300 303 301 302 303 304 305 306 306 308 309 309 310 312 315 319 323 328 331 334 338 339 340 339 338 338 337
296 297 297 297 299 299 300 300 300 302 303 303 304 304 305 305 307 308 310 312 315 319 323 326 329 333 336 338 338 338 338 337
296 297 297 297 298 298 299 299 300 301 301 301 302 303 304 304 305 307 308 311 314 317 320 322 325 329 332 333 334 336 337 336
295 296 297 298 298 298 298 299 299 300 300 300 302 301 303 304 304 304 306 309 312 314 316 319 322 323 324 327 329 332 333 334
295 295 296 297 297 297 297 298 298 298 299 299 299 300 301 302 302 303 305 306 308 309 313 316 319 320 320 320 322 326 328 330
294 295 295 296 296 297 298 299 299 300 300 300 299 300 300 299 300 301 303 304 306 307 309 312 314 318 320 321 320 323 325 325
Wind_Speed
4 3 1 6 10 9 11 10 10 10 8 7 6 4 5 4 5 5 4 4 5 4 3 4 4 10 5 6 5 4 5 4
9 7 8 8 6 13 13 10 11 10 9 9 8 8 8 8 9 9 6 4 6 6 5 5 3 3 4 5 4 5 7 6
5 9 6 5 9 9 12 13 13 11 11 8 10 9 8 7 9 12 9 7 7 6 6 6 6 4 4 3 3 4 4 4
6 7 9 9 10 11 12 14 12 11 9 12 9 9 11 7 8 9 13 11 8 9 9 7 5 5 5 4 3 3 4 3
14 5 7 10 11 8 12 15 14 13 14 10 8 8 7 8 7 7 8 8 8 8 8 8 8 4 5 4 3 2 3 3
11 11 9 8 9 10 13 11 11 11 13 7 5 4 2 3 2 2 6 7 8 6 7 7 5 6 5 5 5 4 4 3
6 11 16 17 10 7 7 9 10 8 2 2 3 2 4 4 3 5 7 10 9 7 7 5 4 4 5 5 3 4 4 4
3 2 12 5 5 5 5 5 5 6 4 3 3 4 4 5 6 5 9 8 11 10 7 5 5 4 4 4 7 4 6 6
5 4 6 7 6 7 8 8 7 7 4 3 2 5 3 1 3 7 7 6 9 8 7 5 2 5 7 5 4 6 5 2
5 5 3 4 5 7 7 5 6 3 2 2 2 2 3 3 2 5 6 6 5 6 6 6 7 11 4 6 6 3 3 5
5 7 5 4 5 5 5 4 2 1 5 2 1 0 1 2 3 3 4 7 7 7 10 7 6 13 10 12 7 5 8 5
8 6 7 6 6 7 8 7 7 4 5 3 3 2 1 1 1 2 3 3 5 7 8 7 9 9 12 13 8 12 8 9
8 8 8 9 10 10 8 9 10 9 8 5 4 2 1 2 2 5 4 3 4 7 9 10 8 6 10 12 11 12 10 11
11 9 9 10 10 10 10 10 9 10 9 9 8 8 7 5 5 5 5 4 4 6 7 8 8 8 9 9 11 13 12 10
10 12 10 11 11 8 8 9 9 9 10 10 9 8 5 4 6 4 6 6 5 7 6 7 7 8 8 8 8 9 9 10
8 8 7 7 8 8 8 8 8 8 7 7 6 7 4 5 5 6 6 6 7 7 7 7 8 8 8 8 7 8 9 10
8 7 7 7 7 7 6 6 4 4 5 5 6 6 6 8 9 6 6 8 8 10 8 10 10 10 9 8 7 9 10 11
6 5 6 5 5 5 6 6 7 6 6 5 8 9 9 9 9 10 11 10 10 10 10 10 9 9 9 9 8 10 11 9
5 6 6 7 7 7 7 7 8 8 7 7 6 9 10 10 9 10 11 11 12 12 12 11 11 11 10 10 10 10 11 11
4 5 6 6 6 5 5 5 7 7 6 8 12 12 11 12 13 13 12 14 12 13 12 13 13 12 11 11 11 10 11 12
Wind_Direction
171 173 275 202 172 178 185 183 174 166 160 166 174 175 172 176 179 180 178 176 181 183 186 204 206 210 206 211 221 222 220 226
180 208 186 171 211 182 182 181 177 180 169 175 183 185 186 188 189 186 176 186 193 192 192 204 205 207 218 216 218 218 225 224
184 186 174 182 190 208 201 187 189 192 177 184 177 193 200 208 194 186 181 193 199 197 211 195 203 194 206 214 234 263 259 264
179 192 195 203 202 200 201 204 205 195 201 188 192 198 184 196 210 214 202 186 201 202 190 207 220 197 193 195 211 230 264 264
222 275 212 188 215 208 218 203 195 201 202 195 204 193 220 185 207 215 207 226 203 203 228 197 192 205 183 179 193 197 251 258
144 154 1 263 231 202 211 207 203 216 215 199 183 159 147 229 190 193 210 213 230 215 232 229 183 167 191 208 191 205 223 217
201 159 182 250 229 232 230 205 201 200 205 158 132 183 191 169 183 209 207 210 207 209 230 227 191 201 199 212 223 222 217 200
287 252 188 167 202 173 202 204 190 155 137 157 200 223 214 193 203 206 211 204 199 201 212 220 184 188 203 209 225 202 231 245
190 172 155 179 179 166 172 176 179 168 162 161 206 231 261 288 203 222 213 202 199 194 206 214 176 237 236 238 247 234 249 188
154 145 194 206 209 201 176 173 158 171 130 143 176 183 217 220 224 227 213 198 186 180 169 157 109 311 315 246 214 234 243 177
73 46 29 63 47 43 64 92 114 187 192 155 192 257 271 245 229 246 217 191 198 210 225 205 199 222 223 245 217 222 251 234
85 84 61 58 42 70 86 79 79 62 121 152 178 186 215 264 278 286 317 269 211 230 245 247 220 209 230 239 237 228 213 256
63 47 47 37 24 28 15 20 31 17 12 55 85 74 314 315 324 319 312 286 219 214 220 228 230 219 224 221 216 216 216 221
35 32 45 48 33 34 30 29 19 15 17 12 12 348 334 326 303 293 281 261 250 234 224 225 229 223 221 220 222 219 216 222
40 40 32 32 31 30 33 26 13 2 9 9 4 352 337 295 290 283 294 292 271 253 236 229 221 220 224 228 227 234 226 229
47 32 31 31 25 19 12 8 357 357 354 340 336 337 331 315 302 307 302 293 288 284 268 245 232 229 221 217 222 230 239 240
32 24 21 9 3 353 347 337 318 311 309 310 314 311 317 310 307 295 295 296 297 299 288 264 254 234 218 217 222 230 229 234
23 3 350 337 328 316 323 326 321 319 322 320 322 317 311 305 302 300 300 298 299 300 295 284 267 251 243 226 221 223 229 228
354 338 328 319 316 315 314 320 318 319 316 308 308 308 301 298 294 291 288 289 283 278 281 283 279 263 249 236 230 227 228 226
309 310 301 293 291 283 284 307 313 309 306 319 318 317 321 313 302 291 285 280 282 285 277 270 270 271 261 251 249 241 234 232